TimeEST,TemperatureF,Dew PointF,Humidity,Sea Level PressureIn,VisibilityMPH,Wind Direction,Wind SpeedMPH,Gust SpeedMPH,PrecipitationIn,Events,Conditions,WindDirDegrees,DateUTC
12:15 AM,36.5,33.8,90,29.65,7.0,NW,4.6,-,N/A,,Overcast,310,2012-12-18 05:15:00
12:35 AM,36.0,33.4,91,29.64,7.0,NW,3.5,-,N/A,,Overcast,310,2012-12-18 05:35:00
12:55 AM,35.6,33.1,91,29.64,7.0,WNW,4.6,-,N/A,,Overcast,290,2012-12-18 05:55:00
1:15 AM,34.9,32.9,92,29.64,7.0,WNW,3.5,-,N/A,,Overcast,300,2012-12-18 06:15:00
1:35 AM,34.3,32.4,92,29.65,7.0,WNW,3.5,-,N/A,,Overcast,290,2012-12-18 06:35:00
1:55 AM,33.8,32.2,94,29.65,5.0,West,4.6,-,N/A,,Overcast,280,2012-12-18 06:55:00
2:15 AM,33.3,32.0,95,29.65,5.0,WNW,5.8,-,N/A,,Overcast,290,2012-12-18 07:15:00
2:35 AM,32.9,32.0,96,29.66,5.0,WNW,8.1,-,N/A,,Overcast,290,2012-12-18 07:35:00
2:55 AM,32.9,32.0,96,29.66,4.0,WNW,6.9,-,N/A,,Overcast,300,2012-12-18 07:55:00
3:15 AM,32.4,31.8,98,29.66,5.0,WNW,5.8,-,N/A,,Overcast,300,2012-12-18 08:15:00
3:35 AM,32.0,31.3,97,29.66,7.0,WNW,6.9,-,N/A,,Overcast,300,2012-12-18 08:35:00
3:55 AM,32.4,31.6,97,29.67,7.0,WNW,5.8,-,N/A,,Overcast,300,2012-12-18 08:55:00
4:15 AM,32.9,32.0,96,29.67,7.0,WNW,5.8,-,N/A,,Overcast,290,2012-12-18 09:15:00
4:35 AM,32.9,31.6,95,29.67,7.0,WNW,4.6,-,N/A,,Overcast,290,2012-12-18 09:35:00
4:55 AM,32.4,31.1,95,29.67,7.0,WNW,4.6,-,N/A,,Overcast,290,2012-12-18 09:55:00
5:15 AM,32.0,30.9,96,29.67,7.0,WNW,4.6,-,N/A,,Overcast,290,2012-12-18 10:15:00
5:35 AM,32.2,31.1,96,29.68,7.0,West,4.6,-,N/A,,Overcast,280,2012-12-18 10:35:00
5:55 AM,32.2,30.9,95,29.69,7.0,West,4.6,-,N/A,,Overcast,260,2012-12-18 10:55:00
6:15 AM,32.4,30.9,94,29.69,7.0,West,3.5,-,N/A,,Overcast,270,2012-12-18 11:15:00
6:55 AM,32.0,30.0,92,29.71,7.0,West,5.8,-,N/A,,Overcast,270,2012-12-18 11:55:00
7:15 AM,31.8,29.3,90,29.71,7.0,West,3.5,-,N/A,,Overcast,280,2012-12-18 12:15:00
7:35 AM,30.7,28.4,91,29.71,7.0,Calm,Calm,-,N/A,,Scattered Clouds,0,2012-12-18 12:35:00
7:55 AM,29.8,28.2,94,29.72,5.0,Calm,Calm,-,N/A,,Clear,0,2012-12-18 12:55:00
8:15 AM,29.5,28.0,94,29.73,5.0,Calm,Calm,-,N/A,,Clear,0,2012-12-18 13:15:00
8:35 AM,28.9,27.5,94,29.73,5.0,SW,3.5,-,N/A,,Clear,230,2012-12-18 13:35:00
8:55 AM,30.4,29.1,95,29.75,5.0,WSW,4.6,-,N/A,,Clear,240,2012-12-18 13:55:00
9:15 AM,31.8,30.2,94,29.75,5.0,WSW,3.5,-,N/A,,Scattered Clouds,250,2012-12-18 14:15:00
9:35 AM,32.7,30.2,90,29.75,7.0,West,4.6,-,N/A,,Mostly Cloudy,260,2012-12-18 14:35:00
9:55 AM,32.7,30.0,90,29.75,7.0,Calm,Calm,-,N/A,,Mostly Cloudy,0,2012-12-18 14:55:00
10:15 AM,34.7,30.2,84,29.75,10.0,West,3.5,-,N/A,,Scattered Clouds,260,2012-12-18 15:15:00
10:35 AM,35.8,30.2,80,29.77,10.0,West,6.9,-,N/A,,Clear,260,2012-12-18 15:35:00
10:55 AM,36.7,30.7,79,29.76,10.0,West,5.8,-,N/A,,Clear,270,2012-12-18 15:55:00
11:15 AM,38.5,30.7,74,29.75,10.0,WSW,4.6,-,N/A,,Clear,240,2012-12-18 16:15:00
11:35 AM,38.7,30.0,71,29.75,10.0,NW,5.8,-,N/A,,Scattered Clouds,320,2012-12-18 16:35:00
11:55 AM,39.2,29.5,68,29.76,10.0,West,8.1,-,N/A,,Scattered Clouds,270,2012-12-18 16:55:00
12:15 PM,38.3,29.3,70,29.75,10.0,West,6.9,-,N/A,,Mostly Cloudy,280,2012-12-18 17:15:00
12:35 PM,38.7,29.7,70,29.74,10.0,WSW,4.6,-,N/A,,Overcast,240,2012-12-18 17:35:00
1:15 PM,39.6,29.5,67,29.72,10.0,SW,4.6,-,N/A,,Overcast,230,2012-12-18 18:15:00
1:35 PM,41.0,30.2,65,29.72,10.0,SSW,5.8,-,N/A,,Mostly Cloudy,210,2012-12-18 18:35:00
1:55 PM,41.0,29.3,63,29.71,10.0,SW,4.6,-,N/A,,Scattered Clouds,230,2012-12-18 18:55:00
2:15 PM,39.4,29.3,67,29.70,10.0,South,6.9,-,N/A,,Scattered Clouds,190,2012-12-18 19:15:00
2:35 PM,39.7,29.7,67,29.70,10.0,SSW,6.9,-,N/A,,Mostly Cloudy,200,2012-12-18 19:35:00
2:55 PM,39.4,29.7,68,29.70,10.0,South,5.8,-,N/A,,Scattered Clouds,180,2012-12-18 19:55:00
3:15 PM,38.5,30.0,72,29.69,10.0,South,8.1,-,N/A,,Scattered Clouds,170,2012-12-18 20:15:00
3:35 PM,37.8,29.8,73,29.70,10.0,South,9.2,-,N/A,,Mostly Cloudy,190,2012-12-18 20:35:00
3:55 PM,37.6,30.2,75,29.70,10.0,South,10.4,-,N/A,,Mostly Cloudy,170,2012-12-18 20:55:00
4:15 PM,37.4,30.7,77,29.69,10.0,South,5.8,-,N/A,,Overcast,170,2012-12-18 21:15:00
4:35 PM,37.4,31.1,78,29.69,10.0,SE,3.5,-,N/A,,Overcast,140,2012-12-18 21:35:00
4:55 PM,37.4,31.1,78,29.68,10.0,SE,4.6,-,N/A,,Overcast,140,2012-12-18 21:55:00
5:15 PM,37.4,31.8,80,29.68,10.0,SE,3.5,-,N/A,,Overcast,140,2012-12-18 22:15:00
5:35 PM,37.4,31.8,80,29.68,10.0,SSE,4.6,-,N/A,,Overcast,160,2012-12-18 22:35:00
5:55 PM,37.2,31.8,81,29.67,10.0,East,4.6,-,N/A,,Overcast,100,2012-12-18 22:55:00
6:15 PM,37.0,31.6,81,29.66,10.0,East,3.5,-,N/A,,Mostly Cloudy,100,2012-12-18 23:15:00
6:35 PM,36.9,31.8,82,29.68,10.0,Calm,Calm,-,N/A,,Overcast,0,2012-12-18 23:35:00
6:55 PM,36.9,31.8,82,29.68,10.0,SSE,3.5,-,N/A,,Overcast,160,2012-12-18 23:55:00
7:15 PM,36.7,31.8,83,29.68,10.0,Calm,Calm,-,N/A,,Overcast,0,2012-12-19 00:15:00
7:35 PM,36.5,31.8,83,29.69,10.0,Calm,Calm,-,N/A,,Overcast,0,2012-12-19 00:35:00
7:55 PM,36.7,32.0,83,29.70,10.0,SSW,3.5,-,N/A,,Overcast,200,2012-12-19 00:55:00
8:15 PM,37.4,32.4,82,29.70,7.0,Calm,Calm,-,N/A,,Overcast,0,2012-12-19 01:15:00
8:35 PM,37.4,32.5,83,29.70,7.0,Calm,Calm,-,N/A,,Overcast,0,2012-12-19 01:35:00
8:56 PM,37.4,33.1,84,29.69,5.0,South,3.5,-,N/A,Rain,Light Rain,180,2012-12-19 01:56:00
9:15 PM,36.7,33.8,89,29.69,5.0,South,5.8,-,N/A,Rain,Rain,180,2012-12-19 02:15:00
9:35 PM,36.5,34.2,91,29.69,4.0,Calm,Calm,-,N/A,,Overcast,0,2012-12-19 02:35:00
9:55 PM,36.7,34.3,91,29.69,4.0,Calm,Calm,-,N/A,,Light Drizzle,0,2012-12-19 02:55:00
10:15 PM,36.7,34.9,93,29.69,2.5,Calm,Calm,-,N/A,,Light Drizzle,0,2012-12-19 03:15:00
10:35 PM,36.5,35.1,95,29.69,2.5,Calm,Calm,-,N/A,,Light Drizzle,0,2012-12-19 03:35:00
10:55 PM,36.7,35.6,96,29.69,3.0,Calm,Calm,-,N/A,,Overcast,0,2012-12-19 03:55:00
11:15 PM,36.7,35.6,96,29.69,3.0,Calm,Calm,-,N/A,,Overcast,0,2012-12-19 04:15:00
11:35 PM,36.7,35.6,96,29.69,4.0,ESE,3.5,-,N/A,,Overcast,120,2012-12-19 04:35:00
11:55 PM,36.7,35.6,96,29.69,4.0,Calm,Calm,-,N/A,,Overcast,0,2012-12-19 04:55:00